Back to catalog

NOAA 16 DEB

AlivePO
NORAD 42340·DEBRIS·🇺🇸 United States

Launched Sep 21, 2000 from Vandenberg Space Force Base

Loading…

Next Passes (next 24 hours)

TLE

FreshSource: Space-Track

Epoch: Sep 14, 2026, 07:35 UTC

1 42340U 00055QG  26257.31612305  .00007120  00000-0  18090-2 0  9996
2 42340  99.0276  69.4489 0023797 337.7502  22.2656 14.50895810544943

Track NOAA 16 DEB in real time with AllMySat

Download on the App Store